Weather in Alor Setar

Malaysia     6°07′02″N   100°22′11″E
temp.,
°C
wind,
m/s
gust,
m/s
humid.,
%
clouds,
%
prec.,
mm/h
press.,
hPa
HPBL,
m
7 march, sun
sun723:00+27ne71079100 0.1 1012589
02:00+26ne7981100 0.1 1012479
05:00+26ne568388 0.0 1010380
08:00+25ene448672 0.0 1011276
11:00+27ne227711 0.0 1013339
14:00+29wsw446649 0.0 1011378
17:00+29wsw556919 0.0 1008399
20:00+29wnw457058 1.1 1010440
8 march, mon
mon823:00+28ne4472100 0.3 1013344
02:00+26ene4480100 0.3 1012220
05:00+26e4482100 0.0 1011247
08:00+25e4483100 0.0 1012224
11:00+27e2270100 0.0 1013346
14:00+29wsw5467100 0.0 1011400
17:00+28wsw5672100 0.0 1008355
20:00+29nw5671100 0.0 1010834
9 march, tue
tue923:00+27ne8974100 0.0 1013588
02:00+26ene7879100 0.0 1012414
05:00+25ene558262 0.0 1010281
08:00+24ene448339 0.0 1012234
11:00+27ene34670 0.0 1014342
14:00+30sw44540 0.0 1011406
17:00+29wsw54600 0.0 1009388
20:00+29wsw226816 0.0 1010210
10 march, wed
wed1023:00+28ene366469 0.0 1013663
02:00+26ne567164 0.0 1012326
05:00+25ene44784 0.0 1011213
08:00+24ene45792 0.0 1012219
11:00+27ene44660 0.0 1014355
14:00+30w34540 0.0 1011358
17:00+30wsw556123 0.0 1008551
20:00+29wnw246912 0.0 1010297
11 march, thu
thu1123:00+27ne812710 0.0 1012688
02:00+26ene67760 0.0 1011375
05:00+25ene447911 0.0 1010217
08:00+25ene448044 0.0 1012220
11:00+27ene33672 0.0 1013339
14:00+30wsw435916 0.0 1010360
17:00+29wsw567092 0.0 1008350
20:00+29wsw337182 0.8 1009232